Home   Weather   Riesa   Past weeks

Flag for Germany Past Weather in Riesa, Saxony, Germany — Yesterday and Last 2 Weeks

Now
27 °F

Partly sunny.


Feels Like: 19 °F
Forecast: 22 / 27 °F
Wind: 7 mph from North

Location: Dresden-Klotzsche

Current Time: Jan 16, 2017 at 2:19:15 pm

Latest Report: Jan 16, 2017 at 1:50 pm


Visibility: N/A

Pressure: 30.21 "Hg

Humidity: 100%

Dew Point: 27 °F

Location of RiesaLocation

Past Weather in Riesa — Graph

°F

Riesa Temperature Yesterday

Maximum temperature yesterday: 32 °F (at 12:20 am)
Minimum temperature yesterday: 28 °F (at 7:50 pm)
Average temperature yesterday: 30 °F

High & Low Weather Summary for the Past Weeks

 TemperatureHumidityPressure
High41 °F (Jan 13, 6:20 am)100% (Jan 2, 6:20 am)30.69 "Hg (Jan 2, 6:20 am)
Low10 °F (Jan 6, 4:50 am)57% (Jan 13, 7:20 am)29.12 "Hg (Jan 13, 5:50 am)
Average28 °F88%29.99 "Hg
* Reported Jan 1 12:20 pm — Jan 16 12:50 pm, Riesa, Weather by CustomWeather, © 2017

Note: Actual official high and low records may vary slightly from our data, if they occured in-between our weather recording intervals... More about our weather records

Advertising

Riesa Weather History for the Previous 24 Hours

Scroll right to see more
 ConditionsComfort  
Time TempWeatherWind HumidityBarometerVisibility
12:50 pm
Mon, Jan 16
28 °FPartly sunny.7 mph93%30.21 "Hg5 mi
12:20 pm28 °FPartly sunny.7 mph93%30.21 "Hg4 mi
11:50 am28 °FIce fog.7 mph93%30.18 "Hg3 mi
11:20 am27 °FLight snow. Ice fog.6 mph100%30.18 "Hg3 mi
10:50 am27 °FLight snow. Ice fog.5 mph100%30.18 "Hg1 mi
10:20 am27 °FLight snow. Ice fog.5 mph100%30.18 "Hg1 mi
9:50 am27 °FLight snow. Ice fog.6 mph100%30.18 "Hg1 mi
9:20 am27 °FLight snow. Ice fog.5 mph100%30.18 "Hg2 mi
8:50 am27 °FLight snow. Ice fog.5 mph100%30.15 "Hg2 mi
8:20 am27 °FLight snow. Ice fog.6 mph100%30.15 "Hg2 mi
7:50 am27 °FLight snow. Ice fog.6 mph100%30.15 "Hg2 mi
7:20 am27 °FLight snow. Ice fog.5 mph100%30.12 "Hg2 mi
6:50 am28 °FLight snow. Ice fog.6 mph100%30.12 "Hg2 mi
6:20 am28 °FLight snow. Ice fog.7 mph100%30.12 "Hg2 mi
5:50 am28 °FLight snow. Ice fog.7 mph100%30.09 "Hg2 mi
5:20 am28 °FLight snow. Ice fog.5 mph100%30.09 "Hg2 mi
4:50 am28 °FLight snow. Ice fog.5 mph100%30.09 "Hg2 mi
4:20 am28 °FLight snow. Ice fog.6 mph100%30.09 "Hg2 mi
3:50 am28 °FLight snow. Ice fog.6 mph100%30.09 "Hg2 mi
3:20 am28 °FLight snow. Ice fog.6 mph100%30.09 "Hg2 mi
2:50 am28 °FLight snow. Ice fog.6 mph100%30.09 "Hg1 mi
2:20 am28 °FLight snow. Ice fog.6 mph100%30.07 "Hg2 mi
1:50 am28 °FLight snow. Ice fog.6 mph100%30.07 "Hg2 mi
1:20 am28 °FLight snow. Ice fog.6 mph100%30.07 "Hg2 mi
12:50 am28 °FLight snow. Ice fog.5 mph100%30.07 "Hg2 mi
12:20 am28 °FLight snow. Ice fog.5 mph100%30.07 "Hg2 mi
11:50 pm
Sun, Jan 15
28 °FLight snow. Ice fog.6 mph100%30.07 "Hg2 mi
11:20 pm28 °FLight snow. Ice fog.6 mph100%30.07 "Hg2 mi
10:50 pm28 °FLight snow. Ice fog.6 mph100%30.04 "Hg3 mi
10:20 pm28 °FLight snow. Ice fog.6 mph100%30.04 "Hg3 mi
9:50 pm28 °FLight snow. Ice fog.5 mph100%30.04 "Hg3 mi
9:20 pm30 °FLight snow. Ice fog.6 mph93%30.04 "Hg2 mi
8:50 pm30 °FSnow. Ice fog.6 mph93%30.04 "Hg1 mi
8:20 pm30 °FLight snow. Ice fog.6 mph93%30.04 "Hg2 mi
7:50 pm28 °FLight snow. Ice fog.6 mph100%30.04 "Hg2 mi
7:20 pm30 °FLight snow. Ice fog.7 mph93%30.01 "Hg2 mi
6:50 pm30 °FLight snow. Ice fog.6 mph93%30.01 "Hg2 mi
6:20 pm30 °FSnow. Passing clouds.8 mph93%30.01 "Hg1 mi
5:50 pm30 °FLight snow. Passing clouds.8 mph93%30.01 "Hg2 mi
5:20 pm30 °FLight snow. Passing clouds.8 mph93%30.01 "Hg2 mi
4:50 pm30 °FLight snow. Passing clouds.9 mph93%29.98 "Hg2 mi
4:20 pm30 °FLight snow. Partly sunny.9 mph93%29.98 "Hg2 mi
3:50 pm30 °FLight snow. Partly sunny.9 mph100%29.98 "Hg2 mi
3:20 pm30 °FLight snow. Partly sunny.12 mph93%29.98 "Hg2 mi
2:50 pm30 °FLight snow. Partly sunny.10 mph93%29.98 "Hg1 mi
2:20 pm30 °FLight snow. Partly sunny.9 mph93%29.95 "Hg1 mi
Weather by CustomWeather, © 2017

See weather overviewHow to use our weather pages